Location: Newark
(40.4667°N, 5.6000°W)
Time: 12:12:46
(UTC+00:00)

A-11 Canister half - All Passes

Search period start: 12 November 2019 00:00
Search period end: 22 November 2019 00:00
Orbit: 1527 x 1682 km, 47.3° (Epoch: 12 November)

Date Brightness Start Highest point End Pass type
(mag) Time Alt. Az. Time Alt. Az. Time Alt. Az.
12 Nov - 11:01:47 10° SSE 11:06:25 14° ESE 11:10:59 10° E daylight
12 Nov - 13:00:20 10° SSW 13:09:55 54° SE 13:19:14 10° ENE daylight
12 Nov - 15:05:01 10° WSW 15:14:54 72° NNW 15:24:28 10° ENE daylight
12 Nov - 17:11:28 10° WNW 17:21:01 58° N 17:30:17 10° E daylight
12 Nov - 19:17:11 10° WNW 19:26:47 89° NNE 19:36:07 10° ESE visible
12 Nov - 21:22:53 10° WNW 21:31:02 35° SW 21:39:06 10° SSE visible
13 Nov - 10:40:51 10° SSE 10:44:52 13° ESE 10:48:49 10° E daylight
13 Nov - 12:38:46 10° SSW 12:48:19 52° SE 12:57:35 10° ENE daylight
13 Nov - 14:43:19 10° WSW 14:53:14 74° NNW 15:02:50 10° ENE daylight
13 Nov - 16:49:45 10° WNW 16:59:19 58° N 17:08:36 10° E daylight
13 Nov - 18:55:31 10° WNW 19:05:09 86° NNE 19:14:31 10° ESE visible
13 Nov - 21:01:10 10° WNW 21:09:29 37° SW 21:17:41 10° SSE visible
14 Nov - 10:20:06 10° SE 10:23:19 12° ESE 10:26:30 10° ESE daylight
14 Nov - 12:17:13 10° SSW 12:26:42 49° SE 12:35:55 10° ENE daylight
14 Nov - 14:21:36 10° WSW 14:31:34 76° NNW 14:41:12 10° ENE daylight
14 Nov - 16:28:01 10° WNW 16:37:38 58° N 16:46:56 10° E daylight
14 Nov - 18:33:51 10° WNW 18:43:31 84° NNE 18:52:53 10° ESE visible
14 Nov - 20:39:27 10° WNW 20:47:55 39° SW 20:56:15 10° SSE visible
15 Nov - 09:59:40 10° SE 10:01:46 11° ESE 10:03:51 10° ESE daylight
15 Nov - 11:55:41 10° SSW 12:05:05 47° SE 12:14:15 10° ENE daylight
15 Nov - 13:59:54 10° WSW 14:09:53 78° NNW 14:19:34 10° ENE daylight
15 Nov - 16:06:18 10° WNW 16:15:56 58° N 16:25:16 10° E daylight
15 Nov - 18:12:11 10° WNW 18:21:52 82° NNE 18:31:15 10° ESE visible
15 Nov - 20:17:45 10° WNW 20:26:21 41° SW 20:34:48 10° SSE visible
16 Nov - 11:34:09 10° SSW 11:43:29 45° SE 11:52:35 10° ENE daylight
16 Nov - 13:38:12 10° WSW 13:48:13 80° NNW 13:57:56 10° ENE daylight
16 Nov - 15:44:34 10° WNW 15:54:15 58° N 16:03:35 10° ENE daylight
16 Nov - 17:50:31 10° WNW 18:00:13 80° NNE 18:09:37 10° ESE visible
16 Nov - 19:56:03 10° WNW 20:04:47 43° SW 20:13:20 10° SSE visible
17 Nov - 11:12:38 10° SSW 11:21:52 43° SE 11:30:54 10° ENE daylight
17 Nov - 13:16:30 10° WSW 13:26:33 82° NNW 13:36:17 10° ENE daylight
17 Nov - 15:22:50 10° W 15:32:32 58° N 15:41:55 10° ENE daylight
17 Nov - 17:28:50 10° WNW 17:38:34 78° NNE 17:47:58 10° ESE visible
17 Nov - 19:34:21 10° WNW 19:43:12 45° SW 19:51:52 10° SSE visible
18 Nov - 10:51:08 10° SSW 11:00:16 41° SE 11:09:12 10° ENE daylight
18 Nov - 12:54:48 10° WSW 13:04:53 84° NNW 13:14:40 10° ENE daylight
18 Nov - 15:01:07 10° W 15:10:51 58° N 15:20:15 10° ENE daylight
18 Nov - 17:07:09 10° WNW 17:16:55 76° NNE 17:26:19 10° ESE daylight
18 Nov - 19:12:39 10° WNW 19:21:37 48° SW 19:30:23 10° SSE visible
18 Nov - 21:23:29 10° WSW 21:24:45 10° WSW 21:26:02 10° SW visible
19 Nov - 10:29:38 10° SSW 10:38:40 39° SE 10:47:30 10° ENE daylight
19 Nov - 12:33:07 10° WSW 12:43:13 86° NNW 12:53:01 10° ENE daylight
19 Nov - 14:39:23 10° W 14:49:09 58° N 14:58:35 10° ENE daylight
19 Nov - 16:45:29 10° WNW 16:55:15 74° NNE 17:04:41 10° ESE daylight
19 Nov - 18:50:58 10° WNW 19:00:03 50° SW 19:08:54 10° SSE visible
19 Nov - 21:00:31 10° WSW 21:03:14 11° WSW 21:05:57 10° SW visible
20 Nov - 10:08:09 10° SSW 10:17:04 37° SE 10:25:48 10° ENE daylight
20 Nov - 12:11:27 10° WSW 12:21:33 88° NNW 12:31:23 10° ENE daylight
20 Nov - 14:17:38 10° W 14:27:26 59° N 14:36:55 10° ENE daylight
20 Nov - 16:23:48 10° WNW 16:33:35 72° NNE 16:43:02 10° ESE daylight
20 Nov - 18:29:16 10° WNW 18:38:27 53° SW 18:47:24 10° SSE visible
20 Nov - 20:38:06 10° W 20:41:43 13° WSW 20:45:18 10° SW visible
21 Nov - 09:46:42 10° SSW 09:55:28 35° SE 10:04:05 10° ENE daylight
21 Nov - 11:49:45 10° WSW 11:59:53 89° SSE 12:09:45 10° ENE daylight
21 Nov - 13:55:55 10° W 14:05:44 59° N 14:15:15 10° ENE daylight
21 Nov - 16:02:06 10° WNW 16:11:55 71° NNE 16:21:22 10° ESE daylight
21 Nov - 18:07:35 10° WNW 18:16:52 55° SW 18:25:53 10° SSE visible
21 Nov - 20:15:54 10° W 20:20:11 14° WSW 20:24:26 10° SSW visible
